SHT2LC EGJB-EGLL

Flight info

Callsign SHT2LC
Flight time 0h 40m
Altitude 23000
Route ORIST L982 ROXOG
Aircraft A319/M-SDE3FGHIRWY/LB1

Departure

Time 2026-04-21 07:28
Airport Guernsey Airport (EGJB)

Arrival

Time 2026-04-21 08:08
Airport London Heathrow Airport (EGLL)
Time Latitude Longitude Altitude Speed Heading
2026-04-21 07:12 49.43265 -2.59685 328 ft 0 kts 177°
2026-04-21 07:20 49.43281 -2.59686 327 ft 4 kts 176°
2026-04-21 07:20 49.43308 -2.59688 329 ft 4 kts 181°
2026-04-21 07:21 49.43334 -2.59682 329 ft 4 kts 207°
2026-04-21 07:21 49.43352 -2.59664 329 ft 4 kts 233°
2026-04-21 07:21 49.43361 -2.59628 330 ft 4 kts 266°
2026-04-21 07:21 49.43362 -2.59616 330 ft 0 kts 267°
2026-04-21 07:23 49.43361 -2.59644 327 ft 6 kts 268°
2026-04-21 07:24 49.43357 -2.59739 326 ft 11 kts 255°
2026-04-21 07:24 49.43348 -2.59783 328 ft 2 kts 255°
2026-04-21 07:24 49.43345 -2.59837 322 ft 9 kts 267°
2026-04-21 07:24 49.43341 -2.59994 315 ft 20 kts 269°
2026-04-21 07:25 49.43335 -2.60261 297 ft 27 kts 268°
2026-04-21 07:25 49.43328 -2.60514 293 ft 22 kts 268°
2026-04-21 07:25 49.43343 -2.60748 301 ft 22 kts 280°
2026-04-21 07:25 49.43365 -2.60963 312 ft 18 kts 271°
2026-04-21 07:26 49.43360 -2.61148 312 ft 10 kts 267°
2026-04-21 07:26 49.43362 -2.61248 313 ft 10 kts 287°
2026-04-21 07:26 49.43404 -2.61328 315 ft 10 kts 315°
2026-04-21 07:26 49.43463 -2.61330 315 ft 11 kts 60°
2026-04-21 07:27 49.43467 -2.61282 314 ft 0 kts 88°
2026-04-21 07:27 49.43480 -2.60775 310 ft 96 kts 88°
2026-04-21 07:27 49.43512 -2.59376 533 ft 146 kts 88°
2026-04-21 07:28 49.43545 -2.57805 1367 ft 147 kts 87°
2026-04-21 07:28 49.43590 -2.56234 2062 ft 151 kts 86°
2026-04-21 07:28 49.43642 -2.54498 2452 ft 175 kts 86°
2026-04-21 07:28 49.43700 -2.52506 2991 ft 194 kts 86°
2026-04-21 07:29 49.43910 -2.50450 3764 ft 200 kts 68°
2026-04-21 07:29 49.44833 -2.48854 4440 ft 207 kts 34°
2026-04-21 07:29 49.46246 -2.48240 5345 ft 217 kts 10°
2026-04-21 07:29 49.47740 -2.47860 6223 ft 219 kts 17°
2026-04-21 07:30 49.49227 -2.47275 6820 ft 238 kts 18°
2026-04-21 07:30 49.50863 -2.46568 7345 ft 261 kts 18°
2026-04-21 07:30 49.52645 -2.45810 8168 ft 270 kts 18°
2026-04-21 07:30 49.54477 -2.45058 9079 ft 275 kts 17°
2026-04-21 07:31 49.56344 -2.44316 9967 ft 279 kts 15°
2026-04-21 07:31 49.58240 -2.43576 10861 ft 283 kts 15°
2026-04-21 07:31 49.60136 -2.42842 11751 ft 285 kts 14°
2026-04-21 07:31 49.62065 -2.42101 12659 ft 286 kts 13°
2026-04-21 07:32 49.64010 -2.41360 13489 ft 290 kts 11°
2026-04-21 07:32 49.65984 -2.40606 14278 ft 294 kts 11°
2026-04-21 07:32 49.67979 -2.39827 15052 ft 299 kts 13°
2026-04-21 07:32 49.69907 -2.38527 15780 ft 308 kts 27°
2026-04-21 07:33 49.71663 -2.36440 16112 ft 334 kts 41°
2026-04-21 07:33 49.73242 -2.33629 16317 ft 356 kts 46°
2026-04-21 07:33 49.74862 -2.30663 16836 ft 365 kts 45°
2026-04-21 07:33 49.76508 -2.27648 17455 ft 370 kts 45°
2026-04-21 07:34 49.78182 -2.24582 18063 ft 375 kts 45°
2026-04-21 07:34 49.79876 -2.21479 18674 ft 380 kts 44°
2026-04-21 07:34 49.81591 -2.18338 19290 ft 384 kts 44°
2026-04-21 07:34 49.83329 -2.15168 19892 ft 388 kts 44°
2026-04-21 07:35 49.85089 -2.11958 20483 ft 393 kts 44°
2026-04-21 07:35 49.86858 -2.08727 21065 ft 397 kts 44°
2026-04-21 07:35 49.88652 -2.05446 21621 ft 401 kts 43°
2026-04-21 07:35 49.90463 -2.02131 22159 ft 405 kts 43°
2026-04-21 07:36 49.92290 -1.98779 22693 ft 409 kts 43°
2026-04-21 07:36 49.94132 -1.95387 23116 ft 413 kts 43°
2026-04-21 07:36 49.95980 -1.91969 23222 ft 410 kts 43°
2026-04-21 07:36 49.97782 -1.88606 23251 ft 401 kts 43°
2026-04-21 07:37 49.99698 -1.85534 23252 ft 391 kts 33°
2026-04-21 07:37 50.01871 -1.83086 23245 ft 382 kts 23°
2026-04-21 07:37 50.04197 -1.81173 23242 ft 377 kts 19°
2026-04-21 07:37 50.06541 -1.79324 23252 ft 378 kts 19°
2026-04-21 07:38 50.08882 -1.77471 23258 ft 378 kts 19°
2026-04-21 07:38 50.11226 -1.75610 23260 ft 379 kts 20°
2026-04-21 07:38 50.13444 -1.73347 23252 ft 388 kts 31°
2026-04-21 07:38 50.15529 -1.70664 23252 ft 389 kts 32°
2026-04-21 07:39 50.17609 -1.67970 23261 ft 389 kts 32°
2026-04-21 07:39 50.19688 -1.65268 23266 ft 389 kts 32°
2026-04-21 07:39 50.21702 -1.62646 23264 ft 389 kts 32°
2026-04-21 07:39 50.23776 -1.59942 23257 ft 388 kts 32°
2026-04-21 07:40 50.25916 -1.57412 23255 ft 382 kts 24°
2026-04-21 07:40 50.28243 -1.55528 23271 ft 373 kts 14°
2026-04-21 07:40 50.30680 -1.54251 23263 ft 368 kts
2026-04-21 07:40 50.33098 -1.53081 23270 ft 368 kts 10°
2026-04-21 07:41 50.35579 -1.51871 23270 ft 368 kts 10°
2026-04-21 07:41 50.37198 -1.51074 23279 ft 368 kts 10°
2026-04-21 07:41 50.39356 -1.50011 23280 ft 368 kts 10°
2026-04-21 07:41 50.41801 -1.48802 23280 ft 368 kts 10°
2026-04-21 07:42 50.44200 -1.47619 23283 ft 368 kts 10°
2026-04-21 07:42 50.46648 -1.46414 23284 ft 368 kts 10°
2026-04-21 07:42 50.49091 -1.45212 23283 ft 368 kts 10°
2026-04-21 07:42 50.51527 -1.44011 23286 ft 368 kts 10°
2026-04-21 07:43 50.53961 -1.42667 23285 ft 373 kts 17°
2026-04-21 07:43 50.55997 -1.41056 23290 ft 376 kts 20°
2026-04-21 07:43 50.58257 -1.39152 23211 ft 376 kts 21°
2026-04-21 07:43 50.60569 -1.37158 22347 ft 380 kts 22°
2026-04-21 07:44 50.62836 -1.35176 21992 ft 364 kts 22°
2026-04-21 07:44 50.64977 -1.33297 21575 ft 351 kts 22°
2026-04-21 07:44 50.67101 -1.31442 21134 ft 348 kts 22°
2026-04-21 07:44 50.69206 -1.29617 20688 ft 345 kts 22°
2026-04-21 07:45 50.71308 -1.27809 20251 ft 343 kts 23°
2026-04-21 07:45 50.73398 -1.26011 19809 ft 341 kts 23°
2026-04-21 07:45 50.75468 -1.24223 19365 ft 338 kts 24°
2026-04-21 07:45 50.77511 -1.22383 18908 ft 338 kts 26°
2026-04-21 07:46 50.79502 -1.20416 18444 ft 337 kts 28°
2026-04-21 07:46 50.81457 -1.18384 17975 ft 336 kts 30°
2026-04-21 07:46 50.83396 -1.16322 17513 ft 335 kts 30°
2026-04-21 07:46 50.85323 -1.14272 17043 ft 333 kts 31°
2026-04-21 07:47 50.87245 -1.12243 16572 ft 331 kts 30°
2026-04-21 07:47 50.89149 -1.10248 16113 ft 329 kts 31°
2026-04-21 07:47 50.91017 -1.08303 15651 ft 328 kts 31°
2026-04-21 07:47 50.92943 -1.06307 15178 ft 325 kts 31°
2026-04-21 07:48 50.94807 -1.04380 14725 ft 323 kts 31°
2026-04-21 07:48 50.96686 -1.02437 14273 ft 321 kts 31°
2026-04-21 07:48 50.98548 -1.00509 13800 ft 319 kts 31°
2026-04-21 07:48 51.00360 -0.98508 13341 ft 317 kts 38°
2026-04-21 07:49 51.01896 -0.96017 12982 ft 315 kts 47°
2026-04-21 07:49 51.03347 -0.93417 12649 ft 313 kts 47°
2026-04-21 07:49 51.04792 -0.90848 12316 ft 311 kts 47°
2026-04-21 07:49 51.06230 -0.88303 11978 ft 309 kts 47°
2026-04-21 07:50 51.07657 -0.85772 11658 ft 306 kts 47°
2026-04-21 07:50 51.09074 -0.83250 11329 ft 304 kts 47°
2026-04-21 07:50 51.10479 -0.80744 11005 ft 302 kts 48°
2026-04-21 07:50 51.11872 -0.78254 10661 ft 301 kts 48°
2026-04-21 07:51 51.13249 -0.75792 10461 ft 292 kts 48°
2026-04-21 07:51 51.14569 -0.73424 10298 ft 282 kts 48°
2026-04-21 07:51 51.15862 -0.71110 10088 ft 276 kts 49°
2026-04-21 07:51 51.17132 -0.68830 9913 ft 275 kts 49°
2026-04-21 07:52 51.18398 -0.66552 9600 ft 273 kts 49°
2026-04-21 07:52 51.19652 -0.64295 9276 ft 271 kts 49°
2026-04-21 07:52 51.20895 -0.62062 9047 ft 265 kts 49°
2026-04-21 07:52 51.22098 -0.59899 8920 ft 256 kts 50°
2026-04-21 07:53 51.23260 -0.57810 8788 ft 247 kts 50°
2026-04-21 07:53 51.24377 -0.55799 8656 ft 235 kts 50°
2026-04-21 07:53 51.25422 -0.53916 8529 ft 218 kts 50°
2026-04-21 07:53 51.26406 -0.52138 8231 ft 211 kts 50°
2026-04-21 07:54 51.27474 -0.50563 7881 ft 210 kts 33°
2026-04-21 07:54 51.28835 -0.49832 7733 ft 205 kts
2026-04-21 07:54 51.30221 -0.50066 7582 ft 200 kts 347°
2026-04-21 07:54 51.31421 -0.51199 7329 ft 204 kts 321°
2026-04-21 07:55 51.32224 -0.53093 7321 ft 211 kts 295°
2026-04-21 07:55 51.32686 -0.55328 7320 ft 212 kts 290°
2026-04-21 07:55 51.33136 -0.57545 7319 ft 203 kts 291°
2026-04-21 07:55 51.33559 -0.59619 7321 ft 192 kts 291°
2026-04-21 07:56 51.33971 -0.61631 7327 ft 189 kts 291°
2026-04-21 07:56 51.34382 -0.63637 7328 ft 190 kts 291°
2026-04-21 07:56 51.34792 -0.65648 7317 ft 191 kts 291°
2026-04-21 07:56 51.35187 -0.67668 7246 ft 190 kts 290°
2026-04-21 07:57 51.35575 -0.69691 7130 ft 190 kts 290°
2026-04-21 07:57 51.35819 -0.71778 6979 ft 193 kts 276°
2026-04-21 07:57 51.35847 -0.73921 6833 ft 193 kts 271°
2026-04-21 07:57 51.35842 -0.76057 6683 ft 192 kts 271°
2026-04-21 07:58 51.35834 -0.78192 6538 ft 192 kts 271°
2026-04-21 07:58 51.35826 -0.80322 6389 ft 191 kts 271°
2026-04-21 07:58 51.35817 -0.82445 6226 ft 191 kts 271°
2026-04-21 07:58 51.35876 -0.84567 6051 ft 192 kts 274°
2026-04-21 07:59 51.35932 -0.86695 5880 ft 191 kts 274°
2026-04-21 07:59 51.36106 -0.88772 5678 ft 187 kts 297°
2026-04-21 07:59 51.36586 -0.89875 5580 ft 181 kts 319°
2026-04-21 07:59 51.37622 -0.90887 5399 ft 171 kts 350°
2026-04-21 08:00 51.39084 -0.90730 5267 ft 156 kts 30°
2026-04-21 08:00 51.39928 -0.89609 5186 ft 162 kts 52°
2026-04-21 08:00 51.40682 -0.88192 5008 ft 168 kts 52°
2026-04-21 08:00 51.41435 -0.86783 4799 ft 165 kts 52°
2026-04-21 08:01 51.42168 -0.85410 4585 ft 159 kts 52°
2026-04-21 08:01 51.42648 -0.84509 4444 ft 155 kts 52°
2026-04-21 08:01 51.43335 -0.83220 4239 ft 148 kts 52°
2026-04-21 08:02 51.44805 -0.80464 3820 ft 138 kts 53°
2026-04-21 08:02 51.45224 -0.79678 3698 ft 137 kts 52°
2026-04-21 08:02 51.45838 -0.78521 3516 ft 136 kts 52°
2026-04-21 08:02 51.46453 -0.77363 3336 ft 137 kts 52°
2026-04-21 08:03 51.47066 -0.76201 3154 ft 136 kts 54°
2026-04-21 08:03 51.47480 -0.74865 3045 ft 135 kts 79°
2026-04-21 08:03 51.47516 -0.73366 3020 ft 135 kts 82°
2026-04-21 08:03 51.47577 -0.71863 2885 ft 135 kts 84°
2026-04-21 08:04 51.47612 -0.70376 2729 ft 136 kts 86°
2026-04-21 08:04 51.47634 -0.68854 2556 ft 138 kts 86°
2026-04-21 08:04 51.47650 -0.67300 2377 ft 140 kts 86°
2026-04-21 08:04 51.47662 -0.65744 2200 ft 140 kts 86°
2026-04-21 08:05 51.47673 -0.64146 2005 ft 145 kts 87°
2026-04-21 08:05 51.47682 -0.62516 1809 ft 147 kts 87°
2026-04-21 08:05 51.47691 -0.60870 1614 ft 148 kts 87°
2026-04-21 08:05 51.47699 -0.59276 1420 ft 134 kts 87°
2026-04-21 08:06 51.47705 -0.57849 1243 ft 124 kts 88°
2026-04-21 08:06 51.47712 -0.56498 1085 ft 119 kts 87°
2026-04-21 08:06 51.47718 -0.55174 933 ft 118 kts 87°
2026-04-21 08:06 51.47725 -0.53857 779 ft 118 kts 88°
2026-04-21 08:07 51.47731 -0.52543 621 ft 118 kts 88°
2026-04-21 08:07 51.47734 -0.51219 455 ft 119 kts 85°
2026-04-21 08:07 51.47741 -0.49884 295 ft 120 kts 87°
2026-04-21 08:07 51.47748 -0.48550 139 ft 119 kts 87°
2026-04-21 08:08 51.47758 -0.47296 86 ft 95 kts 89°
2026-04-21 08:08 51.47756 -0.46627 92 ft 47 kts 90°
2026-04-21 08:08 51.47726 -0.46169 87 ft 32 kts 131°
2026-04-21 08:08 51.47603 -0.46101 86 ft 16 kts 224°
2026-04-21 08:09 51.47594 -0.46299 90 ft 20 kts 269°
2026-04-21 08:09 51.47592 -0.46548 86 ft 25 kts 270°
2026-04-21 08:09 51.47590 -0.46831 86 ft 21 kts 263°
2026-04-21 08:09 51.47582 -0.47058 86 ft 22 kts 269°
2026-04-21 08:10 51.47582 -0.47332 88 ft 26 kts 271°
2026-04-21 08:10 51.47583 -0.47627 86 ft 22 kts 269°
2026-04-21 08:10 51.47582 -0.47873 89 ft 22 kts 269°
2026-04-21 08:10 51.47580 -0.48110 89 ft 21 kts 269°
2026-04-21 08:11 51.47578 -0.48336 88 ft 20 kts 269°
2026-04-21 08:11 51.47531 -0.48477 86 ft 14 kts 183°
2026-04-21 08:11 51.47435 -0.48475 90 ft 11 kts 180°
2026-04-21 08:11 51.47397 -0.48509 86 ft 6 kts 257°
2026-04-21 08:12 51.47400 -0.48565 90 ft 2 kts 265°
2026-04-21 08:12 51.47400 -0.48587 86 ft 1 kts 269°
2026-04-21 08:12 51.47400 -0.48589 90 ft 0 kts 269°